Year,Month,Day,Hour,Minute,Value (Times are PST for temperature in C)
2019,06,11,00,00,16.30
2019,06,11,00,01,16.30
2019,06,11,00,02,16.30
2019,06,11,00,03,16.30
2019,06,11,00,04,16.30
2019,06,11,00,05,16.30
2019,06,11,00,06,16.20
2019,06,11,00,07,16.20
2019,06,11,00,08,16.20
2019,06,11,00,09,16.20
2019,06,11,00,10,16.20
2019,06,11,00,11,16.20
2019,06,11,00,12,16.20
2019,06,11,00,13,16.20
2019,06,11,00,14,16.20
2019,06,11,00,15,16.10
2019,06,11,00,16,16.10
2019,06,11,00,17,16.10
2019,06,11,00,18,16.10
2019,06,11,00,19,16.10
2019,06,11,00,20,16.00
2019,06,11,00,21,16.00
2019,06,11,00,22,16.00
2019,06,11,00,23,16.00
2019,06,11,00,24,16.00
2019,06,11,00,25,15.90
2019,06,11,00,26,15.90
2019,06,11,00,27,15.90
2019,06,11,00,28,15.90
2019,06,11,00,29,15.90
2019,06,11,00,30,15.90
2019,06,11,00,31,15.90
2019,06,11,00,32,15.80
2019,06,11,00,33,15.80
2019,06,11,00,34,15.80
2019,06,11,00,35,15.80
2019,06,11,00,36,15.80
2019,06,11,00,37,15.80
2019,06,11,00,38,15.80
2019,06,11,00,39,15.80
2019,06,11,00,40,15.80
2019,06,11,00,41,15.70
2019,06,11,00,42,15.70
2019,06,11,00,43,15.70
2019,06,11,00,44,15.70
2019,06,11,00,45,15.70
2019,06,11,00,46,15.70
2019,06,11,00,47,15.60
2019,06,11,00,48,15.60
2019,06,11,00,49,15.60
2019,06,11,00,50,15.60
2019,06,11,00,51,15.60
2019,06,11,00,52,15.60
2019,06,11,00,53,15.60
2019,06,11,00,54,15.60
2019,06,11,00,55,15.60
2019,06,11,00,56,15.60
2019,06,11,00,57,15.60
2019,06,11,00,58,15.60
2019,06,11,00,59,15.50
2019,06,11,01,00,15.50
2019,06,11,01,01,15.50
2019,06,11,01,02,15.50
2019,06,11,01,03,15.50
2019,06,11,01,04,15.50
2019,06,11,01,05,15.50
2019,06,11,01,06,15.50
2019,06,11,01,07,15.40
2019,06,11,01,08,15.40
2019,06,11,01,09,15.40
2019,06,11,01,10,15.40
2019,06,11,01,11,15.40
2019,06,11,01,12,15.40
2019,06,11,01,13,15.40
2019,06,11,01,14,15.40
2019,06,11,01,15,15.40
2019,06,11,01,16,15.40
2019,06,11,01,17,15.40
2019,06,11,01,18,15.40
2019,06,11,01,19,15.40
2019,06,11,01,20,15.40
2019,06,11,01,21,15.40
2019,06,11,01,22,15.40
2019,06,11,01,23,15.30
2019,06,11,01,24,15.30
2019,06,11,01,25,15.40
2019,06,11,01,26,15.40
2019,06,11,01,27,15.40
2019,06,11,01,28,15.40
2019,06,11,01,29,15.40
2019,06,11,01,30,15.40
2019,06,11,01,31,15.40
2019,06,11,01,32,15.40
2019,06,11,01,33,15.30
2019,06,11,01,34,15.30
2019,06,11,01,35,15.30
2019,06,11,01,36,15.30
2019,06,11,01,37,15.30
2019,06,11,01,38,15.30
2019,06,11,01,39,15.30
2019,06,11,01,40,15.30
2019,06,11,01,41,15.30
2019,06,11,01,42,15.30
2019,06,11,01,43,15.30
2019,06,11,01,44,15.30
2019,06,11,01,45,15.30
2019,06,11,01,46,15.30
2019,06,11,01,47,15.30
2019,06,11,01,48,15.20
2019,06,11,01,49,15.20
2019,06,11,01,50,15.20
2019,06,11,01,51,15.20
2019,06,11,01,52,15.20
2019,06,11,01,53,15.20
2019,06,11,01,54,15.20
2019,06,11,01,55,15.20
2019,06,11,01,56,15.20
2019,06,11,01,57,15.10
2019,06,11,01,58,15.10
2019,06,11,01,59,15.10
2019,06,11,02,00,15.10
2019,06,11,02,01,15.10
2019,06,11,02,02,15.10
2019,06,11,02,03,15.10
2019,06,11,02,04,15.00
2019,06,11,02,05,15.00
2019,06,11,02,06,15.00
2019,06,11,02,07,15.00
2019,06,11,02,08,14.90
2019,06,11,02,09,14.90
2019,06,11,02,10,14.90
2019,06,11,02,11,14.90
2019,06,11,02,12,14.90
2019,06,11,02,13,14.90
2019,06,11,02,14,14.80
2019,06,11,02,15,14.80
2019,06,11,02,16,14.90
2019,06,11,02,17,14.90
2019,06,11,02,18,14.90
2019,06,11,02,19,14.90
2019,06,11,02,20,14.80
2019,06,11,02,21,14.80
2019,06,11,02,22,14.80
2019,06,11,02,23,14.80
2019,06,11,02,24,14.80
2019,06,11,02,25,14.80
2019,06,11,02,26,14.80
2019,06,11,02,27,14.80
2019,06,11,02,28,14.80
2019,06,11,02,29,14.80
2019,06,11,02,30,14.80
2019,06,11,02,31,14.80
2019,06,11,02,32,14.80
2019,06,11,02,33,14.80
2019,06,11,02,34,14.80
2019,06,11,02,35,14.70
2019,06,11,02,36,14.70
2019,06,11,02,37,14.70
2019,06,11,02,38,14.70
2019,06,11,02,39,14.70
2019,06,11,02,40,14.70
2019,06,11,02,41,14.60
2019,06,11,02,42,14.60
2019,06,11,02,43,14.60
2019,06,11,02,44,14.60
2019,06,11,02,45,14.60
2019,06,11,02,46,14.60
2019,06,11,02,47,14.50
2019,06,11,02,48,14.50
2019,06,11,02,49,14.50
2019,06,11,02,50,14.50
2019,06,11,02,51,14.50
2019,06,11,02,52,14.40
2019,06,11,02,53,14.40
2019,06,11,02,54,14.40
2019,06,11,02,55,14.40
2019,06,11,02,56,14.40
2019,06,11,02,57,14.40
2019,06,11,02,58,14.40
2019,06,11,02,59,14.40
2019,06,11,03,00,14.40
2019,06,11,03,01,14.40
2019,06,11,03,02,14.40
2019,06,11,03,03,14.40
2019,06,11,03,04,14.40
2019,06,11,03,05,14.30
2019,06,11,03,06,14.30
2019,06,11,03,07,14.30
2019,06,11,03,08,14.30
2019,06,11,03,09,14.30
2019,06,11,03,10,14.30
2019,06,11,03,11,14.30
2019,06,11,03,12,14.30
2019,06,11,03,13,14.20
2019,06,11,03,14,14.20
2019,06,11,03,15,14.20
2019,06,11,03,16,14.20
2019,06,11,03,17,14.20
2019,06,11,03,18,14.20
2019,06,11,03,19,14.20
2019,06,11,03,20,14.10
2019,06,11,03,21,14.10
2019,06,11,03,22,14.10
2019,06,11,03,23,14.10
2019,06,11,03,24,14.10
2019,06,11,03,25,14.10
2019,06,11,03,26,14.10
2019,06,11,03,27,14.00
2019,06,11,03,28,14.00
2019,06,11,03,29,14.00
2019,06,11,03,30,14.00
2019,06,11,03,31,14.00
2019,06,11,03,32,14.00
2019,06,11,03,33,14.00
2019,06,11,03,34,14.00
2019,06,11,03,35,14.00
2019,06,11,03,36,13.90
2019,06,11,03,37,13.90
2019,06,11,03,38,14.00
2019,06,11,03,39,14.00
2019,06,11,03,40,14.00
2019,06,11,03,41,14.00
2019,06,11,03,42,14.00
2019,06,11,03,43,14.00
2019,06,11,03,44,14.10
2019,06,11,03,45,14.10
2019,06,11,03,46,14.10
2019,06,11,03,47,14.10
2019,06,11,03,48,14.10
2019,06,11,03,49,14.10
2019,06,11,03,50,14.10
2019,06,11,03,51,14.10
2019,06,11,03,52,14.10
2019,06,11,03,53,14.10
2019,06,11,03,54,14.10
2019,06,11,03,55,14.10
2019,06,11,03,56,14.10
2019,06,11,03,57,14.10
2019,06,11,03,58,14.10
2019,06,11,03,59,14.10
2019,06,11,04,00,14.10
2019,06,11,04,01,14.10
2019,06,11,04,02,14.10
2019,06,11,04,03,14.10
2019,06,11,04,04,14.10
2019,06,11,04,05,14.10
2019,06,11,04,06,14.00
2019,06,11,04,07,14.00
2019,06,11,04,08,14.00
2019,06,11,04,09,14.00
2019,06,11,04,10,14.00
2019,06,11,04,11,14.00
2019,06,11,04,12,13.90
2019,06,11,04,13,13.90
2019,06,11,04,14,13.90
2019,06,11,04,15,13.90
2019,06,11,04,16,13.90
2019,06,11,04,17,13.90
2019,06,11,04,18,13.80
2019,06,11,04,19,13.80
2019,06,11,04,20,13.80
2019,06,11,04,21,13.80
2019,06,11,04,22,13.80
2019,06,11,04,23,13.70
2019,06,11,04,24,13.70
2019,06,11,04,25,13.70
2019,06,11,04,26,13.70
2019,06,11,04,27,13.70
2019,06,11,04,28,13.60
2019,06,11,04,29,13.60
2019,06,11,04,30,13.60
2019,06,11,04,31,13.60
2019,06,11,04,32,13.60
2019,06,11,04,33,13.60
2019,06,11,04,34,13.50
2019,06,11,04,35,13.50
2019,06,11,04,36,13.40
2019,06,11,04,37,13.40
2019,06,11,04,38,13.40
2019,06,11,04,39,13.30
2019,06,11,04,40,13.30
2019,06,11,04,41,13.30
2019,06,11,04,42,13.20
2019,06,11,04,43,13.20
2019,06,11,04,44,13.20
2019,06,11,04,45,13.10
2019,06,11,04,46,13.10
2019,06,11,04,47,13.10
2019,06,11,04,48,13.10
2019,06,11,04,49,13.10
2019,06,11,04,50,13.00
2019,06,11,04,51,13.10
2019,06,11,04,52,13.00
2019,06,11,04,53,13.00
2019,06,11,04,54,13.00
2019,06,11,04,55,13.00
2019,06,11,04,56,13.00
2019,06,11,04,57,13.00
2019,06,11,04,58,13.00
2019,06,11,04,59,13.00
2019,06,11,05,00,13.00
2019,06,11,05,01,13.00
2019,06,11,05,02,13.00
2019,06,11,05,03,13.00
2019,06,11,05,04,13.00
2019,06,11,05,05,13.00
2019,06,11,05,06,13.00
2019,06,11,05,07,13.00
2019,06,11,05,08,13.00
2019,06,11,05,09,13.00
2019,06,11,05,10,13.10
2019,06,11,05,11,13.10
2019,06,11,05,12,13.10
2019,06,11,05,13,13.10
2019,06,11,05,14,13.10
2019,06,11,05,15,13.10
2019,06,11,05,16,13.10
2019,06,11,05,17,13.10
2019,06,11,05,18,13.00
2019,06,11,05,19,13.00
2019,06,11,05,20,12.90
2019,06,11,05,21,12.90
2019,06,11,05,22,12.90
2019,06,11,05,23,12.80
2019,06,11,05,24,12.80
2019,06,11,05,25,12.80
2019,06,11,05,26,12.80
2019,06,11,05,27,12.80
2019,06,11,05,28,12.70
2019,06,11,05,29,12.70
2019,06,11,05,30,12.70
2019,06,11,05,31,12.70
2019,06,11,05,32,12.70
2019,06,11,05,33,12.70
2019,06,11,05,34,12.70
2019,06,11,05,35,12.60
2019,06,11,05,36,12.60
2019,06,11,05,37,12.60
2019,06,11,05,38,12.60
2019,06,11,05,39,12.60
2019,06,11,05,40,12.60
2019,06,11,05,41,12.60
2019,06,11,05,42,12.60
2019,06,11,05,43,12.60
2019,06,11,05,44,12.60
2019,06,11,05,45,12.60
2019,06,11,05,46,12.60
2019,06,11,05,47,12.60
2019,06,11,05,48,12.60
2019,06,11,05,49,12.60
2019,06,11,05,50,12.70
2019,06,11,05,51,12.70
2019,06,11,05,52,12.70
2019,06,11,05,53,12.80
2019,06,11,05,54,12.80
2019,06,11,05,55,12.80
2019,06,11,05,56,12.80
2019,06,11,05,57,12.80
2019,06,11,05,58,12.90
2019,06,11,05,59,12.90
2019,06,11,06,00,12.90
2019,06,11,06,01,12.90
2019,06,11,06,02,12.90
2019,06,11,06,03,12.90
2019,06,11,06,04,12.90
2019,06,11,06,05,12.90
2019,06,11,06,06,12.90
2019,06,11,06,07,12.90
2019,06,11,06,08,12.90
2019,06,11,06,09,12.90
2019,06,11,06,10,12.90
2019,06,11,06,11,13.00
2019,06,11,06,12,13.00
2019,06,11,06,13,13.00
2019,06,11,06,14,13.10
2019,06,11,06,15,13.10
2019,06,11,06,16,13.20
2019,06,11,06,17,13.20
2019,06,11,06,18,13.30
2019,06,11,06,19,13.30
2019,06,11,06,20,13.40
2019,06,11,06,21,13.40
2019,06,11,06,22,13.50
2019,06,11,06,23,13.60
2019,06,11,06,24,13.60
2019,06,11,06,25,13.70
2019,06,11,06,26,13.70
2019,06,11,06,27,13.80
2019,06,11,06,28,13.90
2019,06,11,06,29,14.00
2019,06,11,06,30,14.10
2019,06,11,06,31,14.10
2019,06,11,06,32,14.20
2019,06,11,06,33,14.30
2019,06,11,06,34,14.40
2019,06,11,06,35,14.50
2019,06,11,06,36,14.50
2019,06,11,06,37,14.60
2019,06,11,06,38,14.70
2019,06,11,06,39,14.80
2019,06,11,06,40,14.90
2019,06,11,06,41,14.90
2019,06,11,06,42,15.00
2019,06,11,06,43,15.10
2019,06,11,06,44,15.10
2019,06,11,06,45,15.20
2019,06,11,06,46,15.20
2019,06,11,06,47,15.30
2019,06,11,06,48,15.30
2019,06,11,06,49,15.40
2019,06,11,06,50,15.50
2019,06,11,06,51,15.60
2019,06,11,06,52,15.70
2019,06,11,06,53,15.70
2019,06,11,06,54,15.80
2019,06,11,06,55,15.90
2019,06,11,06,56,16.00
2019,06,11,06,57,16.10
2019,06,11,06,58,16.10
2019,06,11,06,59,16.20
2019,06,11,07,00,16.30
2019,06,11,07,01,16.30
2019,06,11,07,02,16.30
2019,06,11,07,03,16.40
2019,06,11,07,04,16.40
2019,06,11,07,05,16.50
2019,06,11,07,06,16.50
2019,06,11,07,07,16.60
2019,06,11,07,08,16.60
2019,06,11,07,09,16.70
2019,06,11,07,10,16.70
2019,06,11,07,11,16.80
2019,06,11,07,12,16.80
2019,06,11,07,13,16.90
2019,06,11,07,14,16.90
2019,06,11,07,15,17.00
2019,06,11,07,16,17.00
2019,06,11,07,17,17.10
2019,06,11,07,18,17.10
2019,06,11,07,19,17.10
2019,06,11,07,20,17.20
2019,06,11,07,21,17.20
2019,06,11,07,22,17.30
2019,06,11,07,23,17.30
2019,06,11,07,24,17.40
2019,06,11,07,25,17.40
2019,06,11,07,26,17.40
2019,06,11,07,27,17.50
2019,06,11,07,28,17.60
2019,06,11,07,29,17.70
2019,06,11,07,30,17.70
2019,06,11,07,31,17.80
2019,06,11,07,32,17.80
2019,06,11,07,33,17.80
2019,06,11,07,34,17.80
2019,06,11,07,35,17.80
2019,06,11,07,36,17.80
2019,06,11,07,37,17.80
2019,06,11,07,38,17.80
2019,06,11,07,39,17.90
2019,06,11,07,40,17.90
2019,06,11,07,41,17.90
2019,06,11,07,42,18.00
2019,06,11,07,43,18.00
2019,06,11,07,44,18.00
2019,06,11,07,45,18.00
2019,06,11,07,46,18.00
2019,06,11,07,47,18.10
2019,06,11,07,48,18.10
2019,06,11,07,49,18.10
2019,06,11,07,50,18.20
2019,06,11,07,51,18.20
2019,06,11,07,52,18.20
2019,06,11,07,53,18.30
2019,06,11,07,54,18.30
2019,06,11,07,55,18.30
2019,06,11,07,56,18.40
2019,06,11,07,57,18.40
2019,06,11,07,58,18.50
2019,06,11,07,59,18.60
2019,06,11,08,00,18.60
2019,06,11,08,01,18.60
2019,06,11,08,02,18.70
2019,06,11,08,03,18.70
2019,06,11,08,04,18.70
2019,06,11,08,05,18.70
2019,06,11,08,06,18.80
2019,06,11,08,07,18.70
2019,06,11,08,08,18.70
2019,06,11,08,09,18.70
2019,06,11,08,10,18.80
2019,06,11,08,11,18.80
2019,06,11,08,12,18.80
2019,06,11,08,13,18.90
2019,06,11,08,14,18.90
2019,06,11,08,15,18.90
2019,06,11,08,16,18.90
2019,06,11,08,17,18.90
2019,06,11,08,18,18.90
2019,06,11,08,19,19.00
2019,06,11,08,20,19.00
2019,06,11,08,21,19.10
2019,06,11,08,22,19.20
2019,06,11,08,23,19.20
2019,06,11,08,24,19.30
2019,06,11,08,25,19.30
2019,06,11,08,26,19.30
2019,06,11,08,27,19.30
2019,06,11,08,28,19.30
2019,06,11,08,29,19.30
2019,06,11,08,30,19.40
2019,06,11,08,31,19.50
2019,06,11,08,32,19.60
2019,06,11,08,33,19.70
2019,06,11,08,34,19.70
2019,06,11,08,35,19.80
2019,06,11,08,36,19.90
2019,06,11,08,37,19.90
2019,06,11,08,38,20.00
2019,06,11,08,39,20.00
2019,06,11,08,40,20.10
2019,06,11,08,41,20.00
2019,06,11,08,42,20.00
2019,06,11,08,43,19.90
2019,06,11,08,44,19.90
2019,06,11,08,45,19.90
2019,06,11,08,46,19.90
2019,06,11,08,47,19.80
2019,06,11,08,48,19.70
2019,06,11,08,49,19.60
2019,06,11,08,50,19.60
2019,06,11,08,51,19.50
2019,06,11,08,52,19.40
2019,06,11,08,53,19.40
2019,06,11,08,54,19.50
2019,06,11,08,55,19.60
2019,06,11,08,56,19.60
2019,06,11,08,57,19.60
2019,06,11,08,58,19.60
2019,06,11,08,59,19.60
2019,06,11,09,00,19.60
2019,06,11,09,01,19.70
2019,06,11,09,02,19.70
2019,06,11,09,03,19.70
2019,06,11,09,04,19.80
2019,06,11,09,05,19.80
2019,06,11,09,06,19.90
2019,06,11,09,07,20.00
2019,06,11,09,08,20.10
2019,06,11,09,09,20.20
2019,06,11,09,10,20.20
2019,06,11,09,11,20.20
2019,06,11,09,12,20.20
2019,06,11,09,13,20.20
2019,06,11,09,14,20.20
2019,06,11,09,15,20.20
2019,06,11,09,16,20.20
2019,06,11,09,17,20.10
2019,06,11,09,18,20.10
2019,06,11,09,19,20.00
2019,06,11,09,20,20.00
2019,06,11,09,21,20.00
2019,06,11,09,22,20.00
2019,06,11,09,23,20.10
2019,06,11,09,24,20.20
2019,06,11,09,25,20.20
2019,06,11,09,26,20.30
2019,06,11,09,27,20.40
2019,06,11,09,28,20.50
2019,06,11,09,29,20.60
2019,06,11,09,30,20.60
2019,06,11,09,31,20.60
2019,06,11,09,32,20.50
2019,06,11,09,33,20.60
2019,06,11,09,34,20.60
2019,06,11,09,35,20.70
2019,06,11,09,36,20.70
2019,06,11,09,37,20.70
2019,06,11,09,38,20.70
2019,06,11,09,39,20.60
2019,06,11,09,40,20.60
2019,06,11,09,41,20.60
2019,06,11,09,42,20.60
2019,06,11,09,43,20.60
2019,06,11,09,44,20.60
2019,06,11,09,45,20.60
2019,06,11,09,46,20.50
2019,06,11,09,47,20.30
2019,06,11,09,48,20.10
2019,06,11,09,49,19.90
2019,06,11,09,50,19.70
2019,06,11,09,51,19.60
2019,06,11,09,52,19.50
2019,06,11,09,53,19.50
2019,06,11,09,54,19.50
2019,06,11,09,55,19.40
2019,06,11,09,56,19.40
2019,06,11,09,57,19.40
2019,06,11,09,58,19.50
2019,06,11,09,59,19.50
2019,06,11,10,00,19.60
2019,06,11,10,01,19.60
2019,06,11,10,02,19.60
2019,06,11,10,03,19.60
2019,06,11,10,04,19.60
2019,06,11,10,05,19.70
2019,06,11,10,06,19.80
2019,06,11,10,07,19.90
2019,06,11,10,08,20.00
2019,06,11,10,09,20.20
2019,06,11,10,10,20.30
2019,06,11,10,11,20.40
2019,06,11,10,12,20.50
2019,06,11,10,13,20.60
2019,06,11,10,14,20.70
2019,06,11,10,15,20.80
2019,06,11,10,16,20.80
2019,06,11,10,17,20.90
2019,06,11,10,18,21.00
2019,06,11,10,19,21.10
2019,06,11,10,20,21.10
2019,06,11,10,21,21.20
2019,06,11,10,22,21.40
2019,06,11,10,23,21.50
2019,06,11,10,24,21.60
2019,06,11,10,25,21.80
2019,06,11,10,26,21.90
2019,06,11,10,27,21.90
2019,06,11,10,28,22.00
2019,06,11,10,29,22.00
2019,06,11,10,30,22.10
2019,06,11,10,31,22.20
2019,06,11,10,32,22.20
2019,06,11,10,33,22.10
2019,06,11,10,34,22.10
2019,06,11,10,35,22.00
2019,06,11,10,36,21.80
2019,06,11,10,37,21.70
2019,06,11,10,38,21.60
2019,06,11,10,39,21.50
2019,06,11,10,40,21.50
2019,06,11,10,41,21.50
2019,06,11,10,42,21.50
2019,06,11,10,43,21.50
2019,06,11,10,44,21.50
2019,06,11,10,45,21.50
2019,06,11,10,46,21.40
2019,06,11,10,47,21.40
2019,06,11,10,48,21.30
2019,06,11,10,49,21.30
2019,06,11,10,50,21.20
2019,06,11,10,51,21.10
2019,06,11,10,52,21.10
2019,06,11,10,53,21.00
2019,06,11,10,54,20.90
2019,06,11,10,55,21.00
2019,06,11,10,56,21.10
2019,06,11,10,57,21.20
2019,06,11,10,58,21.30
2019,06,11,10,59,21.30
2019,06,11,11,00,21.30
2019,06,11,11,01,21.30
2019,06,11,11,02,21.20
2019,06,11,11,03,21.10
2019,06,11,11,04,21.00
2019,06,11,11,05,20.90
2019,06,11,11,06,20.80
2019,06,11,11,07,20.60
2019,06,11,11,08,20.60
2019,06,11,11,09,20.60
2019,06,11,11,10,20.50
2019,06,11,11,11,20.40
2019,06,11,11,12,20.30
2019,06,11,11,13,20.20
2019,06,11,11,14,20.10
2019,06,11,11,15,20.00
2019,06,11,11,16,20.10
2019,06,11,11,17,20.20
2019,06,11,11,18,20.30
2019,06,11,11,19,20.50
2019,06,11,11,20,20.60
2019,06,11,11,21,20.60
2019,06,11,11,22,20.70
2019,06,11,11,23,20.80
2019,06,11,11,24,20.90
2019,06,11,11,25,20.80
2019,06,11,11,26,20.80
2019,06,11,11,27,20.80
2019,06,11,11,28,20.80
2019,06,11,11,29,20.80
2019,06,11,11,30,20.90
2019,06,11,11,31,21.00
2019,06,11,11,32,21.10
2019,06,11,11,33,21.20
2019,06,11,11,34,21.20
2019,06,11,11,35,21.30
2019,06,11,11,36,21.30
2019,06,11,11,37,21.40
2019,06,11,11,38,21.50
2019,06,11,11,39,21.60
2019,06,11,11,40,21.80
2019,06,11,11,41,22.00
2019,06,11,11,42,22.10
2019,06,11,11,43,22.10
2019,06,11,11,44,22.10
2019,06,11,11,45,22.10
2019,06,11,11,46,21.90
2019,06,11,11,47,21.80
2019,06,11,11,48,21.70
2019,06,11,11,49,21.60
2019,06,11,11,50,21.50
2019,06,11,11,51,21.40
2019,06,11,11,52,21.50
2019,06,11,11,53,21.50
2019,06,11,11,54,21.60
2019,06,11,11,55,21.70
2019,06,11,11,56,21.70
2019,06,11,11,57,21.70
2019,06,11,11,58,21.70
2019,06,11,11,59,21.50
2019,06,11,12,00,21.30
2019,06,11,12,01,21.20
2019,06,11,12,02,21.20
2019,06,11,12,03,21.10
2019,06,11,12,04,21.10
2019,06,11,12,05,21.10
2019,06,11,12,06,21.20
2019,06,11,12,07,21.30
2019,06,11,12,08,21.40
2019,06,11,12,09,21.40
2019,06,11,12,10,21.40
2019,06,11,12,11,21.50
2019,06,11,12,12,21.50
2019,06,11,12,13,21.60
2019,06,11,12,14,21.80
2019,06,11,12,15,21.90
2019,06,11,12,16,22.00
2019,06,11,12,17,22.10
2019,06,11,12,18,22.20
2019,06,11,12,19,22.30
2019,06,11,12,20,22.30
2019,06,11,12,21,22.30
2019,06,11,12,22,22.30
2019,06,11,12,23,22.40
2019,06,11,12,24,22.40
2019,06,11,12,25,22.40
2019,06,11,12,26,22.50
2019,06,11,12,27,22.50
2019,06,11,12,28,22.60
2019,06,11,12,29,22.70
2019,06,11,12,30,22.80
2019,06,11,12,31,22.90
2019,06,11,12,32,22.90
2019,06,11,12,33,22.80
2019,06,11,12,34,22.60
2019,06,11,12,35,22.40
2019,06,11,12,36,22.30
2019,06,11,12,37,22.20
2019,06,11,12,38,22.20
2019,06,11,12,39,22.20
2019,06,11,12,40,22.10
2019,06,11,12,41,22.10
2019,06,11,12,42,22.00
2019,06,11,12,43,22.00
2019,06,11,12,44,22.00
2019,06,11,12,45,22.00
2019,06,11,12,46,22.20
2019,06,11,12,47,22.30
2019,06,11,12,48,22.40
2019,06,11,12,49,22.40
2019,06,11,12,50,22.50
2019,06,11,12,51,22.50
2019,06,11,12,52,22.70
2019,06,11,12,53,22.70
2019,06,11,12,54,22.70
2019,06,11,12,55,22.60
2019,06,11,12,56,22.60
2019,06,11,12,57,22.60
2019,06,11,12,58,22.60
2019,06,11,12,59,22.60
2019,06,11,13,00,22.60
2019,06,11,13,01,22.60
2019,06,11,13,02,22.60
2019,06,11,13,03,22.60
2019,06,11,13,04,22.60
2019,06,11,13,05,22.60
2019,06,11,13,06,22.60
2019,06,11,13,07,22.60
2019,06,11,13,08,22.60
2019,06,11,13,09,22.60
2019,06,11,13,10,22.60
2019,06,11,13,11,22.60
2019,06,11,13,12,22.70
2019,06,11,13,13,22.80
2019,06,11,13,14,22.90
2019,06,11,13,15,23.00
2019,06,11,13,16,23.10
2019,06,11,13,17,23.20
2019,06,11,13,18,23.30
2019,06,11,13,19,23.30
2019,06,11,13,20,23.30
2019,06,11,13,21,23.30
2019,06,11,13,22,23.40
2019,06,11,13,23,23.40
2019,06,11,13,24,23.50
2019,06,11,13,25,23.60
2019,06,11,13,26,23.60
2019,06,11,13,27,23.60
2019,06,11,13,28,23.60
2019,06,11,13,29,23.60
2019,06,11,13,30,23.60
2019,06,11,13,31,23.60
2019,06,11,13,32,23.60
2019,06,11,13,33,23.70
2019,06,11,13,34,23.80
2019,06,11,13,35,23.80
2019,06,11,13,36,23.80
2019,06,11,13,37,23.70
2019,06,11,13,38,23.60
2019,06,11,13,39,23.50
2019,06,11,13,40,23.40
2019,06,11,13,41,23.20
2019,06,11,13,42,23.10
2019,06,11,13,43,23.00
2019,06,11,13,44,22.90
2019,06,11,13,45,22.90
2019,06,11,13,46,22.90
2019,06,11,13,47,22.90
2019,06,11,13,48,22.90
2019,06,11,13,49,22.80
2019,06,11,13,50,22.80
2019,06,11,13,51,22.60
2019,06,11,13,52,22.60
2019,06,11,13,53,22.50
2019,06,11,13,54,22.50
2019,06,11,13,55,22.50
2019,06,11,13,56,22.50
2019,06,11,13,57,22.50
2019,06,11,13,58,22.50
2019,06,11,13,59,22.50
2019,06,11,14,00,22.60
2019,06,11,14,01,22.60
2019,06,11,14,02,22.70
2019,06,11,14,03,22.90
2019,06,11,14,04,23.10
2019,06,11,14,05,23.20
2019,06,11,14,06,23.30
2019,06,11,14,07,23.40
2019,06,11,14,08,23.40
2019,06,11,14,09,23.40
2019,06,11,14,10,23.50
2019,06,11,14,11,23.60
2019,06,11,14,12,23.70
2019,06,11,14,13,23.70
2019,06,11,14,14,23.80
2019,06,11,14,15,23.80
2019,06,11,14,16,23.80
2019,06,11,14,17,23.80
2019,06,11,14,18,23.80
2019,06,11,14,19,23.80
2019,06,11,14,20,23.80
2019,06,11,14,21,23.90
2019,06,11,14,22,23.90
2019,06,11,14,23,23.90
2019,06,11,14,24,24.00
2019,06,11,14,25,24.00
2019,06,11,14,26,24.00
2019,06,11,14,27,24.00
2019,06,11,14,28,24.00
2019,06,11,14,29,24.00
2019,06,11,14,30,24.00
2019,06,11,14,31,24.10
2019,06,11,14,32,24.20
2019,06,11,14,33,24.30
2019,06,11,14,34,24.40
2019,06,11,14,35,24.60
2019,06,11,14,36,24.80
2019,06,11,14,37,24.90
2019,06,11,14,38,24.90
2019,06,11,14,39,24.90
2019,06,11,14,40,24.80
2019,06,11,14,41,24.80
2019,06,11,14,42,24.70
2019,06,11,14,43,24.60
2019,06,11,14,44,24.50
2019,06,11,14,45,24.40
2019,06,11,14,46,24.40
2019,06,11,14,47,24.40
2019,06,11,14,48,24.50
2019,06,11,14,49,24.50
2019,06,11,14,50,24.60
2019,06,11,14,51,24.70
2019,06,11,14,52,24.60
2019,06,11,14,53,24.60
2019,06,11,14,54,24.60
2019,06,11,14,55,24.60
2019,06,11,14,56,24.60
2019,06,11,14,57,24.70
2019,06,11,14,58,24.70
2019,06,11,14,59,24.70
2019,06,11,15,00,24.70
2019,06,11,15,01,24.70
2019,06,11,15,02,24.70
2019,06,11,15,03,24.80
2019,06,11,15,04,24.80
2019,06,11,15,05,24.80
2019,06,11,15,06,24.70
2019,06,11,15,07,24.70
2019,06,11,15,08,24.70
2019,06,11,15,09,24.70
2019,06,11,15,10,24.80
2019,06,11,15,11,24.90
2019,06,11,15,12,24.90
2019,06,11,15,13,25.00
2019,06,11,15,14,25.00
2019,06,11,15,15,25.00
2019,06,11,15,16,25.00
2019,06,11,15,17,25.10
2019,06,11,15,18,25.10
2019,06,11,15,19,25.00
2019,06,11,15,20,25.00
2019,06,11,15,21,25.00
2019,06,11,15,22,25.00
2019,06,11,15,23,25.00
2019,06,11,15,24,25.00
2019,06,11,15,25,25.10
2019,06,11,15,26,25.10
2019,06,11,15,27,25.20
2019,06,11,15,28,25.20
2019,06,11,15,29,25.40
2019,06,11,15,30,25.40
2019,06,11,15,31,25.50
2019,06,11,15,32,25.60
2019,06,11,15,33,25.70
2019,06,11,15,34,25.70
2019,06,11,15,35,25.80
2019,06,11,15,36,25.90
2019,06,11,15,37,26.00
2019,06,11,15,38,26.10
2019,06,11,15,39,26.10
2019,06,11,15,40,26.20
2019,06,11,15,41,26.30
2019,06,11,15,42,26.40
2019,06,11,15,43,26.40
2019,06,11,15,44,26.40
2019,06,11,15,45,26.40
2019,06,11,15,46,26.40
2019,06,11,15,47,26.40
2019,06,11,15,48,26.40
2019,06,11,15,49,26.40
2019,06,11,15,50,26.40
2019,06,11,15,51,26.40
2019,06,11,15,52,26.40
2019,06,11,15,53,26.40
2019,06,11,15,54,26.40
2019,06,11,15,55,26.40
2019,06,11,15,56,26.30
2019,06,11,15,57,26.30
2019,06,11,15,58,26.40
2019,06,11,15,59,26.40
2019,06,11,16,00,26.50
2019,06,11,16,01,26.50
2019,06,11,16,02,26.60
2019,06,11,16,03,26.60
2019,06,11,16,04,26.60
2019,06,11,16,05,26.60
2019,06,11,16,06,26.70
2019,06,11,16,07,26.70
2019,06,11,16,08,26.80
2019,06,11,16,09,26.80
2019,06,11,16,10,26.80
2019,06,11,16,11,26.90
2019,06,11,16,12,26.90
2019,06,11,16,13,27.00
2019,06,11,16,14,27.10
2019,06,11,16,15,27.10
2019,06,11,16,16,27.20
2019,06,11,16,17,27.20
2019,06,11,16,18,27.20
2019,06,11,16,19,27.20
2019,06,11,16,20,27.20
2019,06,11,16,21,27.20
2019,06,11,16,22,27.20
2019,06,11,16,23,27.30
2019,06,11,16,24,27.30
2019,06,11,16,25,27.30
2019,06,11,16,26,27.20
2019,06,11,16,27,27.20
2019,06,11,16,28,27.20
2019,06,11,16,29,27.30
2019,06,11,16,30,27.30
2019,06,11,16,31,27.30
2019,06,11,16,32,27.30
2019,06,11,16,33,27.40
2019,06,11,16,34,27.40
2019,06,11,16,35,27.40
2019,06,11,16,36,27.30
2019,06,11,16,37,27.20
2019,06,11,16,38,27.20
2019,06,11,16,39,27.20
2019,06,11,16,40,27.10
2019,06,11,16,41,27.20
2019,06,11,16,42,27.20
2019,06,11,16,43,27.20
2019,06,11,16,44,27.20
2019,06,11,16,45,27.20
2019,06,11,16,46,27.30
2019,06,11,16,47,27.30
2019,06,11,16,48,27.30
2019,06,11,16,49,27.40
2019,06,11,16,50,27.40
2019,06,11,16,51,27.50
2019,06,11,16,52,27.60
2019,06,11,16,53,27.80
2019,06,11,16,54,27.90
2019,06,11,16,55,27.90
2019,06,11,16,56,27.90
2019,06,11,16,57,28.00
2019,06,11,16,58,28.00
2019,06,11,16,59,28.00
2019,06,11,17,00,28.10
2019,06,11,17,01,28.20
2019,06,11,17,02,28.20
2019,06,11,17,03,28.30
2019,06,11,17,04,28.30
2019,06,11,17,05,28.40
2019,06,11,17,06,28.40
2019,06,11,17,07,28.50
2019,06,11,17,08,28.50
2019,06,11,17,09,28.50
2019,06,11,17,10,28.50
2019,06,11,17,11,28.50
2019,06,11,17,12,28.50
2019,06,11,17,13,28.40
2019,06,11,17,14,28.40
2019,06,11,17,15,28.30
2019,06,11,17,16,28.30
2019,06,11,17,17,28.40
2019,06,11,17,18,28.40
2019,06,11,17,19,28.40